Temperature
16 16 16 16 15 15 15 15 14 14 14 14 13 13 13 12 12 12 12 12 12 11 11 11 11 11 11 11 10 10 10 10 10 10 10 10 10 10 10 10 10 10 10
16 16 16 16 15 15 15 15 14 14 14 13 13 13 13 12 12 12 12 12 11 11 11 11 11 11 11 10 10 10 10 10 10 10 10 10 10 10 10 10 10 10 10
16 16 16 15 15 15 15 14 14 14 13 13 13 13 12 12 12 12 12 11 11 11 11 11 11 10 10 10 10 10 10 10 9 9 9 9 9 9 9 9 9 9 9
16 16 15 15 15 15 14 14 14 14 13 13 13 12 12 12 12 12 11 11 11 11 11 10 10 10 10 10 10 10 10 9 9 9 9 9 9 9 9 9 9 9 9
16 15 15 15 15 14 14 14 13 13 13 13 12 12 12 12 12 11 11 11 11 11 11 10 10 10 10 10 10 10 9 9 9 9 9 9 9 9 9 9 8 9 9
15 15 15 15 14 14 14 13 13 13 12 12 12 12 12 12 11 11 11 11 11 10 10 10 10 10 10 9 9 9 9 9 9 9 9 8 8 8 8 8 8 8 8
15 15 14 14 14 13 13 13 12 12 12 12 12 11 11 11 11 11 11 11 10 10 10 10 10 10 9 9 9 9 9 9 9 8 8 8 8 8 8 8 8 8 8
14 14 14 14 13 13 13 12 12 12 12 11 11 11 11 11 11 10 10 10 10 10 10 10 9 9 9 9 9 9 9 8 8 8 8 8 8 7 7 7 7 7 7
14 14 14 13 13 13 13 12 12 11 11 11 11 11 10 10 10 10 10 10 10 9 9 9 9 9 9 9 8 8 8 8 8 8 8 8 7 7 7 7 7 7 7
14 14 13 13 12 12 12 12 11 11 11 11 10 10 10 10 10 9 9 9 9 9 9 9 9 9 8 8 8 8 8 8 8 7 7 7 7 7 7 7 7 6 6
13 13 13 12 12 12 11 11 11 11 10 10 10 10 10 9 9 9 9 9 9 9 9 9 8 8 8 8 8 8 8 7 7 7 7 7 7 7 7 6 6 6 6
12 12 12 12 11 11 11 11 11 10 10 10 10 9 9 9 9 9 9 8 8 8 8 8 8 8 7 7 7 7 7 7 7 7 7 7 7 6 6 6 6 6 6
12 11 11 11 11 11 10 10 10 10 9 9 9 9 9 8 8 8 8 8 8 8 8 8 7 7 7 7 7 7 7 7 6 6 6 6 6 6 6 5 5 5 5
11 11 10 10 10 10 10 9 9 9 9 9 9 9 8 8 8 8 8 7 7 7 7 7 7 7 7 6 6 6 6 6 6 6 6 6 5 5 5 5 5 5 5
10 10 10 10 9 9 9 9 9 9 8 8 8 8 8 8 8 8 7 7 7 7 7 6 6 6 6 6 6 6 6 6 6 5 5 5 5 5 5 4 4 4 4
10 10 9 9 9 9 8 8 8 8 8 7 7 7 7 7 7 7 7 7 6 6 6 6 6 6 6 6 6 5 5 5 5 5 5 5 4 4 4 4 4 4 4
9 9 9 9 8 8 8 8 8 7 7 7 7 7 7 7 6 6 6 6 6 6 6 6 6 5 5 5 5 5 5 5 5 5 4 4 4 4 4 4 3 3 3
9 9 8 8 8 8 8 7 7 7 7 7 6 6 6 6 6 6 5 5 5 5 5 5 5 5 5 5 5 5 5 4 4 4 4 4 3 3 3 3 3 3 3
8 8 8 8 7 7 7 7 6 6 6 6 6 6 5 5 5 5 5 5 5 5 4 4 4 4 4 4 4 4 4 4 4 4 3 3 3 3 3 3 2 2 2
8 8 7 7 7 7 6 6 6 6 5 5 5 5 5 5 5 5 4 4 4 4 4 4 4 3 3 3 3 4 4 3 3 3 3 3 2 2 2 2 2 2 2
7 7 7 6 6 6 6 6 5 5 5 5 4 4 4 4 4 4 4 4 3 3 3 3 3 3 3 3 3 3 3 3 3 2 2 2 2 2 2 2 2 1 1
6 6 6 6 5 5 5 5 5 4 4 4 4 3 3 3 3 3 3 3 3 3 2 2 2 2 2 2 2 2 2 2 2 2 2 2 2 1 1 1 1 1 1
6 5 5 5 5 4 4 4 4 4 4 3 3 3 3 2 2 2 2 2 2 2 2 2 2 2 2 1 1 1 1 2 1 1 1 1 1 1 1 1 1 0 0
5 5 4 4 4 4 4 3 3 3 3 2 2 2 2 2 2 2 2 1 1 1 1 1 1 1 1 1 1 1 1 1 1 1 1 1 1 0 0 0 0 0 -0
4 4 4 4 4 3 3 3 3 2 2 2 2 2 1 1 1 1 1 1 1 1 1 1 0 0 0 0 0 0 0 0 0 0 0 0 0 -0 -0 -0 -0 -0 -1
4 3 3 3 3 3 3 2 2 2 2 1 1 1 1 1 1 0 0 0 0 0 0 0 0 -0 -0 -0 -0 -0 -0 -0 -0 -0 -0 -0 -0 -0 -1 -1 -1 -1 -1
Wind_Speed
6 6 5 5 5 5 5 6 5 4 5 5 5 5 4 4 4 4 3 3 3 2 2 2 2 2 2 1 1 2 2 2 2 2 2 2 2 2 3 3 3 3 4
6 6 6 5 5 5 5 5 5 5 5 5 5 5 5 5 4 5 4 4 4 4 3 2 2 2 2 1 2 2 2 2 2 2 1 1 1 2 2 2 3 4 4
5 5 5 5 5 6 5 5 5 5 4 4 4 5 5 5 5 5 5 5 5 4 4 4 3 2 2 2 2 2 2 1 1 2 1 1 1 2 2 2 3 3 4
5 5 5 6 6 6 5 5 5 5 4 4 5 5 5 5 5 5 5 5 4 4 3 3 3 3 4 3 3 3 2 2 1 1 1 1 1 2 1 2 3 3 3
5 6 6 5 5 4 4 4 4 4 5 4 4 4 3 4 5 6 6 5 5 4 3 3 3 3 3 3 2 3 3 2 2 1 1 0 1 1 1 1 2 3 2
6 6 5 4 4 4 5 4 4 4 4 3 4 4 4 4 5 7 7 5 5 5 4 2 2 2 3 3 3 3 4 4 3 2 2 2 2 2 1 1 1 2 3
6 5 5 5 5 4 4 4 4 4 4 4 4 4 4 4 5 6 8 6 5 5 4 3 2 1 2 1 1 1 2 2 4 4 4 4 3 3 2 2 2 2 3
5 5 5 5 5 4 4 4 4 4 4 4 4 4 4 4 5 6 7 5 4 4 4 4 3 2 2 2 2 1 1 2 2 2 4 4 3 3 4 3 3 2 2
4 4 5 5 5 5 5 5 4 4 4 4 4 4 4 4 5 6 7 4 4 4 3 4 4 3 4 4 3 2 1 2 2 1 2 2 2 2 2 1 1 0 2
4 4 4 5 6 6 6 5 4 4 4 4 3 4 5 4 6 7 8 4 4 3 2 3 4 4 4 5 4 3 3 3 1 1 1 2 2 1 1 2 3 2 2
3 3 3 4 5 5 4 4 4 4 4 3 3 3 4 5 6 8 8 5 5 4 3 3 4 5 5 5 5 4 4 3 1 1 0 1 2 1 1 1 2 3 3
2 2 2 3 3 3 3 3 4 4 4 3 3 2 2 3 4 6 8 7 5 4 4 4 4 5 5 4 3 3 3 2 1 1 0 1 2 2 2 2 3 3 4
2 2 2 2 2 2 3 3 3 3 3 3 3 3 2 2 3 5 6 7 7 4 4 5 5 6 5 3 3 3 2 2 1 1 2 3 2 2 2 2 2 2 2
3 2 2 2 2 2 2 3 3 3 3 3 3 3 3 2 3 3 3 4 5 4 3 4 4 4 3 2 2 1 2 3 3 3 3 2 1 1 1 1 1 1 2
2 2 2 2 3 2 2 2 3 3 4 4 4 4 4 4 5 6 4 4 4 4 3 2 1 1 2 1 1 1 1 2 2 2 2 1 1 1 2 1 1 1 2
2 2 2 2 2 3 2 1 1 1 2 3 4 4 4 4 4 5 6 5 5 6 4 2 3 3 3 3 3 2 2 3 3 3 2 2 2 2 2 1 1 1 2
3 2 2 2 3 3 3 3 1 1 1 1 2 3 3 3 4 4 4 4 5 6 3 3 3 3 3 3 3 3 3 3 3 3 3 3 3 2 2 2 2 2 3
2 2 2 2 2 2 3 3 3 2 1 0 0 1 2 3 3 4 4 4 2 2 2 3 3 3 2 2 2 2 2 2 2 3 3 3 3 2 2 2 3 3 3
2 1 1 2 2 2 2 2 2 2 2 1 0 1 1 2 2 2 4 2 3 3 2 2 2 2 2 2 2 2 2 2 2 2 2 3 3 3 3 3 3 3 3
1 2 2 2 2 2 2 2 2 2 2 1 1 0 0 1 1 0 1 1 2 2 2 2 2 2 2 2 2 2 2 2 2 2 2 3 3 3 3 3 3 3 3
1 2 3 2 2 2 2 2 2 2 2 1 1 1 2 1 1 1 1 1 2 2 2 3 3 3 2 2 2 3 3 3 3 3 3 3 3 3 3 3 3 3 3
2 2 2 2 2 2 2 2 2 2 2 1 0 0 2 1 1 1 1 1 1 2 2 2 2 3 3 3 3 3 3 3 3 3 3 3 3 3 3 3 3 3 3
2 2 2 1 1 2 2 2 2 2 2 1 1 1 1 1 1 1 1 1 1 2 2 2 2 2 2 3 4 4 4 5 4 4 4 4 4 3 3 3 4 4 4
2 2 2 2 2 2 2 2 1 2 2 1 1 1 1 1 1 2 2 2 2 2 2 2 3 4 4 3 4 5 5 6 5 5 5 5 4 4 4 4 4 4 4
2 2 2 2 2 2 2 1 1 1 1 1 1 1 1 1 1 2 2 2 2 2 3 3 3 3 5 5 5 5 6 7 7 6 5 5 5 5 5 4 4 4 4
2 2 1 1 1 2 2 2 2 2 2 2 1 2 2 2 2 2 2 2 2 3 3 3 4 5 6 6 6 7 7 7 8 7 6 5 5 5 5 5 5 5 4
Wind_Direction
187 187 184 186 185 178 187 197 195 190 187 185 186 183 184 183 175 168 183 178 174 181 183 179 205 188 176 182 168 163 168 161 205 273 285 308 335 340 343 348 349 346 339
189 182 184 181 174 179 194 198 192 193 193 189 182 182 188 185 178 177 187 185 183 189 200 188 214 195 186 189 180 186 193 185 184 238 292 310 311 319 326 336 351 345 336
177 173 174 178 183 194 199 195 187 192 192 184 179 188 193 190 186 189 187 189 189 194 192 190 208 186 206 208 195 195 200 195 181 191 250 301 313 325 338 337 345 341 339
175 176 183 194 197 198 194 189 188 188 187 189 190 195 196 193 193 194 187 185 186 192 191 193 199 200 210 205 201 202 187 173 161 158 218 311 310 316 344 336 334 333 327
180 189 203 203 192 184 183 188 186 186 192 191 185 192 197 192 197 192 187 183 180 183 189 204 210 212 212 203 205 196 178 169 159 168 208 300 305 316 295 300 304 315 309
187 201 201 188 186 189 189 184 181 182 181 180 186 191 201 215 204 190 182 177 177 179 191 213 224 225 238 231 230 199 179 176 186 188 207 223 251 254 265 282 296 328 305
193 197 190 185 186 193 188 176 183 186 178 184 198 195 204 218 204 193 184 172 176 185 190 193 218 223 211 219 232 206 206 196 187 186 199 225 230 228 222 252 251 257 264
193 193 185 180 184 183 173 183 195 190 188 197 198 201 202 216 199 189 177 170 176 190 196 193 192 206 205 177 159 138 241 243 224 212 211 230 232 215 212 222 228 255 283
197 202 196 185 183 181 184 191 192 186 196 202 199 196 201 220 195 179 166 169 186 203 206 199 197 210 213 174 151 163 255 289 286 253 248 263 272 257 202 131 131 246 285
215 212 198 185 186 190 195 193 186 187 198 197 204 207 207 218 198 179 171 174 188 205 215 218 216 215 211 179 168 172 210 252 269 328 336 331 332 312 223 194 195 205 245
208 188 181 184 189 190 185 180 173 180 179 189 205 218 214 213 200 187 182 183 193 196 206 221 228 216 205 193 182 190 218 211 180 181 258 326 337 334 310 256 218 205 215
168 162 169 172 181 177 168 169 163 164 169 186 197 215 223 214 200 196 193 195 187 189 211 219 214 193 194 197 200 213 212 168 138 137 240 283 288 293 290 282 262 240 230
144 154 159 156 157 153 156 162 157 160 172 193 197 206 227 230 213 203 199 198 196 200 214 210 199 188 189 199 206 196 172 159 164 197 239 255 258 263 282 302 309 296 291
150 162 163 159 155 148 152 163 166 176 186 195 201 210 220 223 219 208 201 203 204 208 205 193 184 179 176 184 189 198 187 190 195 214 235 247 261 275 273 285 296 305 301
160 167 169 167 163 157 158 173 182 195 194 198 207 202 200 222 228 210 194 199 199 198 166 144 150 153 176 196 214 213 200 199 215 220 218 235 258 272 283 288 280 286 265
167 179 176 170 167 159 147 95 42 181 200 199 195 195 213 220 212 204 203 199 195 182 157 170 193 196 201 206 216 223 217 219 226 220 218 224 235 248 265 281 273 253 259
177 181 176 170 171 170 166 166 179 8 99 171 189 193 192 180 173 174 179 181 177 161 158 187 203 208 213 209 210 216 226 228 220 214 217 222 230 241 248 254 253 257 267
177 182 170 173 173 175 178 181 178 176 185 283 256 191 179 175 167 164 158 139 155 164 178 199 214 216 211 210 216 219 222 222 215 220 222 223 222 229 240 250 248 254 262
168 168 159 156 154 159 162 166 170 174 178 187 9 343 178 156 142 154 147 149 181 198 201 212 222 221 222 217 218 221 215 218 222 217 226 229 226 224 237 241 245 263 269
177 162 136 135 133 129 133 148 156 158 161 166 190 236 104 91 92 148 163 169 184 206 208 214 225 225 222 222 221 218 217 222 221 225 235 234 232 228 236 241 241 247 251
151 148 131 119 129 140 150 161 160 149 152 161 191 170 143 135 168 184 187 186 202 217 221 220 222 224 223 221 220 218 219 228 226 227 237 244 237 234 237 238 241 245 254
143 139 139 145 148 152 151 149 142 144 149 147 95 63 153 127 165 190 219 230 228 230 222 219 225 228 222 219 219 219 225 234 238 236 239 240 239 242 241 241 244 248 251
142 142 136 139 152 157 147 141 152 160 163 166 167 165 163 182 215 228 243 254 245 240 233 220 226 236 239 233 225 218 227 235 235 228 230 237 236 236 239 247 249 247 249
142 147 152 151 148 152 157 155 164 178 179 175 180 200 207 210 231 246 252 264 263 256 249 234 231 234 238 242 240 236 237 241 236 226 222 227 233 236 235 241 244 248 246
132 142 156 166 166 168 167 166 174 181 183 189 198 209 213 217 237 258 261 265 261 255 255 252 247 248 248 248 249 248 250 250 247 240 224 221 230 231 232 236 240 245 249
130 139 150 157 161 165 171 185 196 195 199 209 212 217 225 231 238 250 262 270 281 272 266 262 256 252 255 254 256 261 262 259 253 247 231 219 228 230 230 232 234 236 243
Height
1506 1508 1510 1511 1513 1514 1515 1516 1517 1519 1520 1521 1521 1522 1523 1523 1524 1524 1524 1525 1525 1525 1525 1525 1525 1525 1525 1525 1525 1525 1525 1525 1524 1523 1523 1522 1522 1522 1521 1521 1520 1519 1518
1503 1504 1506 1508 1509 1510 1511 1513 1514 1515 1516 1517 1518 1519 1520 1520 1521 1521 1521 1522 1522 1522 1522 1522 1522 1522 1522 1522 1522 1522 1522 1522 1522 1521 1521 1520 1520 1519 1519 1518 1518 1517 1516
1500 1501 1503 1504 1505 1507 1508 1509 1510 1511 1513 1514 1515 1515 1516 1517 1517 1518 1518 1519 1519 1519 1520 1519 1519 1519 1519 1519 1519 1519 1519 1519 1519 1519 1518 1518 1518 1517 1516 1516 1516 1515 1514
1496 1497 1499 1500 1501 1503 1504 1505 1507 1508 1509 1510 1511 1512 1513 1514 1514 1515 1515 1516 1516 1516 1517 1516 1516 1516 1516 1516 1516 1516 1516 1516 1516 1516 1516 1515 1515 1514 1514 1514 1513 1513 1512
1492 1494 1495 1496 1498 1499 1500 1502 1503 1504 1505 1506 1507 1508 1509 1510 1510 1511 1512 1512 1513 1513 1513 1514 1513 1514 1513 1513 1514 1513 1513 1513 1513 1513 1512 1512 1512 1511 1511 1511 1510 1510 1509
1488 1490 1491 1493 1494 1495 1496 1498 1499 1500 1501 1502 1503 1504 1505 1506 1507 1508 1509 1509 1510 1510 1510 1511 1511 1511 1510 1510 1510 1510 1511 1510 1510 1510 1509 1509 1509 1509 1509 1508 1508 1507 1506
1485 1486 1487 1488 1490 1491 1492 1493 1494 1496 1497 1498 1499 1500 1501 1502 1503 1504 1505 1506 1506 1507 1507 1507 1507 1507 1507 1507 1507 1507 1507 1507 1507 1507 1506 1506 1506 1506 1506 1505 1505 1504 1504
1481 1482 1483 1484 1485 1487 1488 1489 1491 1492 1493 1494 1495 1496 1497 1498 1499 1500 1501 1502 1502 1503 1504 1504 1504 1504 1504 1504 1504 1504 1504 1504 1503 1504 1504 1504 1504 1503 1503 1503 1502 1501 1501
1477 1478 1479 1480 1481 1482 1483 1485 1486 1488 1489 1490 1491 1492 1493 1494 1494 1495 1497 1497 1498 1499 1500 1500 1500 1500 1500 1501 1501 1500 1500 1500 1500 1501 1501 1501 1500 1500 1500 1499 1499 1498 1497
1473 1474 1476 1477 1477 1478 1479 1481 1482 1483 1485 1486 1487 1488 1489 1490 1491 1491 1493 1493 1494 1495 1496 1496 1496 1497 1497 1497 1497 1497 1497 1497 1497 1497 1497 1497 1497 1496 1496 1496 1495 1495 1494
1471 1471 1472 1473 1474 1475 1476 1477 1478 1479 1481 1482 1483 1484 1485 1485 1486 1487 1488 1489 1490 1491 1491 1492 1493 1493 1494 1494 1494 1494 1494 1494 1494 1494 1494 1494 1493 1493 1492 1492 1492 1491 1491
1468 1468 1469 1469 1471 1472 1473 1473 1474 1475 1476 1478 1479 1479 1480 1481 1482 1483 1484 1485 1486 1487 1487 1488 1489 1490 1490 1490 1490 1491 1491 1491 1490 1490 1490 1490 1490 1489 1489 1489 1488 1488 1488
1465 1465 1466 1467 1467 1468 1469 1470 1471 1471 1472 1474 1475 1475 1476 1477 1478 1479 1480 1481 1481 1482 1483 1484 1485 1486 1486 1487 1487 1487 1487 1487 1487 1486 1486 1486 1486 1486 1485 1485 1485 1484 1484
1462 1463 1463 1464 1464 1465 1466 1466 1467 1468 1468 1469 1470 1471 1472 1473 1473 1474 1475 1476 1477 1478 1479 1480 1481 1481 1482 1483 1483 1483 1483 1483 1483 1483 1483 1483 1482 1482 1481 1481 1481 1480 1479
1460 1460 1460 1461 1461 1462 1462 1463 1463 1464 1465 1466 1466 1467 1468 1468 1469 1470 1471 1472 1473 1474 1475 1476 1476 1477 1477 1478 1479 1479 1479 1479 1479 1479 1479 1479 1478 1478 1477 1477 1476 1476 1475
1457 1457 1458 1458 1458 1459 1459 1460 1461 1462 1462 1463 1463 1464 1464 1465 1466 1467 1467 1468 1469 1470 1471 1471 1472 1473 1473 1474 1474 1474 1475 1475 1475 1475 1475 1474 1474 1474 1473 1473 1472 1472 1471
1455 1455 1455 1455 1456 1456 1456 1457 1457 1458 1459 1459 1460 1460 1461 1462 1462 1463 1463 1464 1465 1466 1467 1467 1468 1468 1469 1469 1469 1469 1470 1470 1470 1470 1470 1470 1470 1469 1469 1468 1468 1467 1466
1453 1453 1453 1453 1453 1453 1454 1454 1454 1455 1455 1456 1457 1457 1458 1458 1459 1459 1460 1461 1461 1462 1462 1463 1464 1464 1464 1465 1465 1465 1465 1465 1465 1465 1465 1465 1465 1465 1465 1464 1463 1463 1462
1450 1450 1450 1450 1451 1451 1451 1451 1451 1452 1452 1453 1453 1454 1455 1455 1455 1456 1456 1457 1457 1458 1458 1459 1460 1460 1460 1460 1460 1460 1461 1461 1460 1460 1461 1461 1461 1460 1460 1459 1459 1458 1458
1447 1447 1447 1447 1448 1448 1448 1448 1448 1449 1449 1450 1450 1451 1451 1452 1452 1452 1453 1453 1453 1454 1455 1455 1456 1457 1457 1457 1456 1456 1456 1456 1456 1456 1456 1456 1456 1456 1455 1455 1454 1454 1454
1444 1444 1444 1444 1445 1445 1445 1446 1446 1446 1446 1447 1448 1448 1448 1448 1448 1449 1449 1449 1450 1451 1451 1452 1452 1452 1452 1452 1452 1451 1451 1451 1451 1451 1451 1451 1451 1451 1450 1450 1450 1449 1449
1441 1441 1441 1441 1442 1442 1443 1443 1443 1444 1444 1444 1445 1445 1445 1446 1446 1446 1446 1446 1447 1447 1448 1448 1448 1448 1448 1447 1447 1447 1446 1446 1446 1446 1446 1446 1446 1446 1445 1445 1444 1444 1444
1439 1439 1439 1439 1439 1440 1440 1441 1441 1441 1441 1442 1442 1442 1442 1442 1442 1442 1442 1443 1443 1443 1443 1443 1443 1443 1443 1443 1443 1442 1442 1441 1441 1441 1441 1441 1441 1441 1441 1440 1440 1440 1439
1436 1436 1436 1436 1436 1437 1437 1437 1438 1438 1438 1439 1439 1439 1439 1439 1439 1439 1439 1439 1439 1439 1439 1439 1439 1439 1438 1438 1438 1437 1437 1437 1437 1437 1437 1436 1436 1436 1436 1435 1435 1435 1435
1433 1433 1434 1434 1434 1434 1435 1435 1435 1435 1435 1436 1436 1435 1435 1435 1435 1435 1435 1435 1435 1434 1434 1434 1434 1433 1433 1433 1433 1432 1432 1432 1432 1432 1432 1432 1431 1431 1431 1431 1431 1431 1431
1431 1431 1431 1432 1432 1432 1432 1432 1432 1432 1432 1432 1432 1432 1432 1431 1431 1431 1431 1430 1430 1429 1429 1429 1428 1428 1428 1427 1427 1427 1427 1427 1427 1427 1427 1426 1426 1426 1426 1426 1426 1426 1426